Location: Az?znagar
(16.8373°N, 80.5091°E)
Time: 15:06:49
(UTC+00:00)

Nadezhda 4 Rocket - Visible Passes

Search period start: 03 July 2022 00:00
Search period end: 13 July 2022 00:00
Orbit: 948 x 993 km, 82.9° (Epoch: 02 July)

Date Brightness Start Highest point End Pass type
(mag) Time Alt. Az. Time Alt. Az. Time Alt. Az.
03 Jul 6.1 23:00:32 10° SE 23:05:37 27° E 23:10:38 10° NE visible
04 Jul 4.8 23:23:21 10° SSE 23:29:25 56° E 23:35:24 10° NNE visible
05 Jul 4.0 23:47:06 10° S 23:53:17 73° W 23:59:25 10° N visible
06 Jul 6.4 22:28:03 10° SE 22:32:21 20° E 22:36:36 10° NE visible
07 Jul 5.2 22:50:22 10° SSE 22:56:07 41° E 23:01:48 10° NNE visible
08 Jul 4.0 23:13:46 10° S 23:19:58 85° E 23:26:07 10° N visible
09 Jul 6.6 21:56:03 10° ESE 21:59:07 14° E 22:02:09 10° ENE visible
09 Jul 4.3 23:37:59 10° SSW 23:43:53 47° W 23:49:46 10° NNW visible
10 Jul 5.7 22:17:33 10° SSE 22:22:50 30° E 22:28:04 10° NNE visible
11 Jul 4.4 22:40:34 10° S 22:46:39 63° E 22:52:41 10° NNE visible
12 Jul 4.0 23:04:26 10° SSW 23:10:32 64° W 23:16:36 10° N visible
